| time (UTC) | temp F | wind direction | speed knots | gust knots | rain 1hr in | rain 24hr in | rain mn in | humidity % | barometer mb |
| 20260507080053 | 66 | 202 | 0.0 | 0.0 | 0.01 | 0.51 | 0.02 | 96 | 1011.3 |
| 20260507074551 | 66 | 202 | 0.0 | 0.0 | 0.00 | 0.50 | 0.01 | 96 | 1011.7 |
| 20260507073048 | 66 | 202 | 0.0 | 0.0 | 0.00 | 0.50 | 0.01 | 95 | 1011.6 |
| 20260507071548 | 66 | 202 | 0.0 | 0.9 | 0.00 | 0.50 | 0.01 | 95 | 1011.9 |
| 20260507064548 | 66 | 202 | 0.0 | 0.0 | 0.00 | 0.50 | 0.01 | 95 | 1011.7 |
| 20260507063052 | 66 | 202 | 0.0 | 0.0 | 0.00 | 0.50 | 0.01 | 95 | 1011.6 |
| 20260507061545 | 66 | 202 | 0.0 | 0.9 | 0.00 | 0.50 | 0.01 | 94 | 1011.9 |
| 20260507060049 | 66 | 202 | 0.0 | 0.9 | 0.00 | 0.50 | 0.01 | 94 | 1011.6 |
| 20260507054544 | 66 | 202 | 0.0 | 0.0 | 0.00 | 0.50 | 0.01 | 94 | 1011.7 |
| 20260507053040 | 67 | 202 | 0.0 | 0.0 | 0.00 | 0.50 | 0.01 | 94 | 1012.0 |
| 20260507051539 | 67 | 202 | 0.9 | 1.7 | 0.00 | 0.50 | 0.01 | 94 | 1012.8 |
| 20260507050059 | 67 | 202 | 0.0 | 0.0 | 0.01 | 0.50 | 0.01 | 94 | 1012.7 |
| 20260507044546 | 67 | 202 | 0.0 | 1.7 | 0.03 | 0.50 | 0.01 | 93 | 1013.2 |
| 20260507043033 | 67 | 202 | 0.0 | 0.0 | 0.07 | 0.50 | 0.01 | 93 | 1013.4 |
| 20260507041532 | 67 | 202 | 0.0 | 0.9 | 0.08 | 0.50 | 0.01 | 93 | 1013.5 |
| 20260507040030 | 67 | 202 | 0.0 | 0.9 | 0.14 | 0.49 | 0.00 | 93 | 1013.6 |
| 20260507034535 | 67 | 202 | 0.0 | 0.9 | 0.25 | 0.46 | 0.46 | 92 | 1014.3 |
| 20260507033037 | 67 | 202 | 0.0 | 2.6 | 0.33 | 0.43 | 0.43 | 91 | 1014.4 |
| 20260507031532 | 68 | 184 | 0.9 | 4.3 | 0.42 | 0.42 | 0.42 | 90 | 1014.4 |
| 20260507030035 | 69 | 32 | 0.9 | 6.1 | 0.35 | 0.35 | 0.35 | 87 | 1015.3 |
| 20260507024535 | 71 | 232 | 0.0 | 3.5 | 0.21 | 0.21 | 0.21 | 83 | 1014.7 |
| 20260507023026 | 74 | 185 | 1.7 | 4.3 | 0.08 | 0.08 | 0.08 | 79 | 1014.4 |
| 20260507021543 | 74 | 126 | 0.0 | 0.0 | 0.00 | 0.00 | 0.00 | 71 | 1012.1 |
| 20260507020027 | 75 | 126 | 0.0 | 0.0 | 0.00 | 0.00 | 0.00 | 70 | 1012.3 |
| 20260507014525 | 75 | 126 | 0.0 | 1.7 | 0.00 | 0.00 | 0.00 | 69 | 1012.0 |
| 20260507013030 | 75 | 126 | 0.0 | 1.7 | 0.00 | 0.00 | 0.00 | 69 | 1011.6 |
| 20260507011529 | 75 | 126 | 0.0 | 0.0 | 0.00 | 0.00 | 0.00 | 70 | 1011.7 |
| 20260507010032 | 75 | 126 | 0.0 | 0.0 | 0.00 | 0.00 | 0.00 | 70 | 1011.9 |
| 20260507004522 | 76 | 126 | 0.0 | 0.0 | 0.00 | 0.00 | 0.00 | 70 | 1012.1 |
| 20260507003019 | 76 | 126 | 0.0 | 0.0 | 0.00 | 0.00 | 0.00 | 69 | 1012.1 |
| 20260507001519 | 76 | 126 | 0.0 | 0.9 | 0.00 | 0.00 | 0.00 | 69 | 1012.1 |
| 20260507000018 | 77 | 295 | 0.0 | 0.9 | 0.00 | 0.00 | 0.00 | 68 | 1012.1 |
| 20260506234518 | 78 | 296 | 0.0 | 0.9 | 0.00 | 0.00 | 0.00 | 67 | 1012.1 |
| 20260506233018 | 79 | 296 | 0.0 | 0.9 | 0.00 | 0.00 | 0.00 | 64 | 1012.2 |
| 20260506231522 | 82 | 296 | 0.0 | 3.5 | 0.00 | 0.00 | 0.00 | 58 | 1012.1 |
| 20260506230017 | 83 | 293 | 0.0 | 3.5 | 0.00 | 0.00 | 0.00 | 54 | 1012.0 |
| 20260506224517 | 84 | 244 | 0.9 | 6.1 | 0.00 | 0.00 | 0.00 | 52 | 1012.1 |
| 20260506223017 | 84 | 107 | 0.0 | 5.2 | 0.00 | 0.00 | 0.00 | 52 | 1012.2 |
| 20260506221513 | 84 | 273 | 0.9 | 4.3 | 0.00 | 0.00 | 0.00 | 52 | 1012.4 |
| 20260506220022 | 86 | 259 | 1.7 | 6.1 | 0.00 | 0.00 | 0.00 | 48 | 1012.5 |
| 20260506214512 | 86 | 52 | 0.9 | 8.7 | 0.00 | 0.00 | 0.00 | 48 | 1012.4 |
| 20260506213011 | 86 | 157 | 1.7 | 8.7 | 0.00 | 0.00 | 0.00 | 49 | 1012.5 |
| 20260506211511 | 86 | 231 | 1.7 | 7.0 | 0.00 | 0.00 | 0.00 | 49 | 1012.4 |
| 20260506210008 | 86 | 250 | 1.7 | 6.1 | 0.00 | 0.00 | 0.00 | 52 | 1012.4 |
| 20260506204508 | 85 | 237 | 1.7 | 7.8 | 0.00 | 0.00 | 0.00 | 54 | 1012.4 |
| 20260506203019 | 86 | 42 | 1.7 | 7.8 | 0.00 | 0.00 | 0.00 | 53 | 1012.4 |
| 20260506201508 | 86 | 243 | 1.7 | 9.6 | 0.00 | 0.00 | 0.00 | 54 | 1012.9 |
| 20260506200001 | 85 | 227 | 3.5 | 8.7 | 0.00 | 0.00 | 0.00 | 55 | 1013.2 |
| 20260506194619 | 84 | 10 | 2.6 | 7.8 | 0.00 | 0.00 | 0.00 | 57 | 1013.5 |
| 20260506193057 | 83 | 179 | 1.7 | 5.2 | 0.00 | 0.00 | 0.00 | 57 | 1013.5 |
| 20260506191554 | 83 | 253 | 1.7 | 7.0 | 0.00 | 0.00 | 0.00 | 57 | 1013.6 |
| 20260506190053 | 82 | 244 | 2.6 | 5.2 | 0.00 | 0.00 | 0.00 | 59 | 1013.7 |
| 20260506184550 | 80 | 133 | 1.7 | 7.8 | 0.00 | 0.00 | 0.00 | 60 | 1014.4 |
| 20260506183100 | 79 | 169 | 0.9 | 3.5 | 0.00 | 0.00 | 0.00 | 64 | 1014.5 |
| 20260506181552 | 77 | 61 | 0.9 | 6.1 | 0.00 | 0.00 | 0.00 | 67 | 1014.6 |
| 20260506180043 | 77 | 40 | 1.7 | 4.3 | 0.00 | 0.00 | 0.00 | 68 | 1015.0 |
| 20260506174543 | 75 | 275 | 2.6 | 6.1 | 0.00 | 0.00 | 0.00 | 69 | 1015.2 |
| 20260506173051 | 76 | 217 | 0.9 | 7.0 | 0.00 | 0.00 | 0.00 | 69 | 1015.4 |
| 20260506171545 | 77 | 194 | 1.7 | 6.1 | 0.00 | 0.00 | 0.00 | 68 | 1015.8 |
| 20260506170046 | 74 | 246 | 1.7 | 4.3 | 0.00 | 0.00 | 0.00 | 72 | 1016.2 |
| 20260506164546 | 75 | 286 | 0.9 | 6.1 | 0.00 | 0.00 | 0.00 | 71 | 1016.4 |
| 20260506163036 | 74 | 263 | 2.6 | 6.1 | 0.00 | 0.00 | 0.00 | 72 | 1016.4 |
| 20260506161539 | 74 | 261 | 0.9 | 8.7 | 0.00 | 0.00 | 0.00 | 72 | 1016.7 |
| 20260506160042 | 74 | 47 | 0.9 | 2.6 | 0.00 | 0.00 | 0.00 | 72 | 1016.5 |
| 20260506154532 | 74 | 188 | 3.5 | 6.1 | 0.00 | 0.00 | 0.00 | 72 | 1016.3 |
| 20260506153026 | 73 | 184 | 0.9 | 7.0 | 0.00 | 0.00 | 0.00 | 75 | 1016.0 |
| 20260506151533 | 73 | 256 | 1.7 | 4.3 | 0.00 | 0.00 | 0.00 | 75 | 1015.8 |
| 20260506150030 | 72 | 238 | 0.0 | 3.5 | 0.00 | 0.00 | 0.00 | 76 | 1015.7 |
| 20260506144521 | 71 | 251 | 0.0 | 6.1 | 0.00 | 0.00 | 0.00 | 76 | 1015.7 |
| 20260506143120 | 71 | 251 | 0.9 | 5.2 | 0.00 | 0.00 | 0.00 | 77 | 1015.9 |
| 20260506141517 | 69 | 238 | 1.7 | 6.1 | 0.00 | 0.00 | 0.00 | 79 | 1016.2 |
| 20260506140014 | 69 | 255 | 1.7 | 3.5 | 0.00 | 0.00 | 0.00 | 79 | 1016.1 |
| 20260506134511 | 67 | 262 | 0.9 | 3.5 | 0.00 | 0.00 | 0.00 | 81 | 1015.9 |
| 20260506133007 | 66 | 242 | 0.0 | 3.5 | 0.00 | 0.00 | 0.00 | 82 | 1015.8 |
| 20260506131503 | 64 | 284 | 0.0 | 2.6 | 0.00 | 0.00 | 0.00 | 85 | 1015.8 |
| 20260506130138 | 63 | 216 | 0.0 | 0.0 | 0.00 | 0.00 | 0.00 | 87 | 1016.0 |
| 20260506124559 | 63 | 216 | 0.0 | 2.6 | 0.00 | 0.00 | 0.00 | 88 | 1016.0 |
| 20260506123058 | 62 | 301 | 0.9 | 2.6 | 0.00 | 0.00 | 0.00 | 89 | 1015.9 |
| 20260506121555 | 61 | 300 | 0.0 | 2.6 | 0.00 | 0.00 | 0.00 | 91 | 1015.9 |
| 20260506120052 | 60 | 24 | 0.0 | 1.7 | 0.00 | 0.00 | 0.00 | 93 | 1015.6 |
| 20260506114551 | 58 | 24 | 0.0 | 2.6 | 0.00 | 0.00 | 0.00 | 94 | 1015.6 |
| 20260506113049 | 57 | 24 | 0.0 | 0.0 | 0.00 | 0.00 | 0.00 | 93 | 1015.3 |
| 20260506111545 | 57 | 24 | 0.0 | 0.9 | 0.00 | 0.00 | 0.00 | 92 | 1014.8 |
| 20260506110051 | 57 | 55 | 0.0 | 0.0 | 0.00 | 0.00 | 0.00 | 92 | 1014.7 |
| 20260506104541 | 57 | 55 | 0.0 | 0.9 | 0.00 | 0.00 | 0.00 | 92 | 1014.9 |
| 20260506103046 | 57 | 320 | 0.0 | 0.0 | 0.00 | 0.00 | 0.00 | 91 | 1014.7 |
| 20260506101551 | 57 | 316 | 0.0 | 0.0 | 0.00 | 0.00 | 0.00 | 91 | 1014.6 |
| 20260506100039 | 57 | 316 | 0.0 | 0.0 | 0.00 | 0.00 | 0.00 | 91 | 1014.6 |
| 20260506094546 | 57 | 316 | 0.0 | 0.0 | 0.00 | 0.00 | 0.00 | 91 | 1014.6 |
| 20260506093035 | 57 | 316 | 0.0 | 0.0 | 0.00 | 0.00 | 0.00 | 90 | 1014.9 |
| 20260506091535 | 57 | 316 | 0.0 | 0.0 | 0.00 | 0.00 | 0.00 | 89 | 1015.0 |
| 20260506090036 | 57 | 316 | 0.0 | 0.0 | 0.00 | 0.00 | 0.00 | 89 | 1015.0 |
| 20260506084533 | 57 | 316 | 0.0 | 0.0 | 0.00 | 0.00 | 0.00 | 88 | 1015.0 |
| 20260506083030 | 58 | 316 | 0.0 | 0.0 | 0.00 | 0.00 | 0.00 | 88 | 1015.2 |
| 20260506081529 | 58 | 316 | 0.0 | 0.0 | 0.00 | 0.00 | 0.00 | 88 | 1015.3 |